Wind_Speed
10 10 11 12 13 14 13 14 15 15 16 17 18 17 16 17 15 14 13 12 10 8 8 8 4 3 3 1 1 2 2 2 2 1 2 2 4 8 12 16 18 16 15
9 10 11 10 12 15 16 17 17 18 18 17 19 19 19 18 18 16 15 13 12 10 10 9 5 5 5 4 3 3 2 1 0 1 2 0 3 6 11 14 17 17 16
9 11 13 14 14 14 15 18 21 21 21 20 20 20 20 19 18 19 17 16 14 12 10 10 9 8 7 7 6 5 4 3 2 2 2 0 2 4 9 13 16 17 15
12 13 15 15 16 18 19 19 21 23 24 24 23 22 21 21 20 20 19 18 17 15 13 13 13 11 10 9 8 7 5 5 4 3 2 1 2 4 8 11 14 15 14
15 18 19 20 20 21 23 24 24 25 25 27 26 26 23 23 23 23 21 20 20 18 17 16 16 14 12 11 10 9 7 6 5 4 3 2 2 4 7 10 12 13 13
20 23 24 25 25 26 26 28 30 30 28 28 29 29 28 26 26 25 24 23 22 22 20 20 19 17 15 13 11 11 8 7 6 5 4 2 2 3 6 9 11 12 12
22 26 28 29 30 31 31 31 32 34 35 31 31 31 31 30 28 28 27 26 25 24 23 23 22 21 19 15 12 10 10 9 8 7 5 3 2 2 6 8 9 10 10
25 28 29 29 31 31 32 33 32 34 36 37 34 34 33 33 31 30 29 28 28 26 26 25 25 24 21 16 14 12 13 9 9 8 6 5 2 3 5 7 8 8 8
29 28 30 30 32 33 37 33 36 36 37 39 38 37 37 35 36 33 31 30 29 28 27 27 28 27 22 19 15 15 14 13 10 9 7 6 3 3 4 5 7 8 8
34 36 35 35 35 36 38 38 38 38 38 39 40 38 39 38 38 37 35 32 31 30 29 29 30 29 25 21 17 18 16 15 12 10 9 6 4 3 2 3 5 6 7
38 40 40 39 38 39 39 41 41 41 40 38 37 40 42 40 41 40 39 36 34 33 32 31 31 29 27 23 18 21 17 17 13 11 9 7 5 4 4 3 5 6 7
41 43 44 42 41 41 42 43 43 43 40 40 43 37 40 43 42 42 42 40 38 35 34 32 32 29 28 24 20 23 19 18 15 12 10 8 7 6 6 5 6 7 8
41 45 45 45 45 45 44 43 45 44 39 40 43 48 38 36 48 49 46 43 41 38 37 36 32 30 29 25 20 25 20 19 17 14 12 9 9 9 8 8 8 8 8
38 43 47 49 49 48 48 45 44 44 41 38 40 47 48 45 32 51 46 46 46 40 40 36 33 30 29 25 21 24 21 20 19 16 14 12 11 12 11 11 11 11 10
43 44 44 47 50 50 48 48 46 45 44 47 47 40 46 51 23 34 43 47 47 48 45 39 36 34 32 24 21 24 22 22 20 18 16 15 14 14 14 13 13 13 13
44 48 48 47 48 50 49 48 48 46 44 48 53 54 35 49 61 23 27 31 52 47 49 43 40 36 32 25 24 27 25 23 21 20 18 17 17 17 17 17 15 16 16
48 49 47 43 41 44 47 47 47 48 47 50 50 49 54 35 47 47 24 40 34 45 35 46 41 37 33 28 27 28 26 25 24 22 19 18 19 19 19 19 19 18 19
43 41 42 44 46 45 46 47 45 48 45 47 51 49 44 45 38 55 49 36 31 41 44 37 39 35 34 31 28 30 30 28 25 23 22 21 21 21 22 22 20 21 21
43 42 44 48 49 44 44 46 46 44 47 44 44 45 47 39 34 31 38 43 26 20 28 40 33 34 34 33 31 32 32 29 27 26 24 22 23 24 24 23 23 24 24
41 43 44 39 42 44 35 41 42 43 43 42 41 39 41 35 31 27 23 41 45 37 14 31 37 35 35 35 34 33 33 32 30 27 27 25 26 26 26 25 26 26 26
36 37 32 31 33 25 26 34 35 35 37 37 34 33 36 31 25 26 21 27 41 28 27 22 19 19 40 36 36 35 36 33 31 29 28 28 28 28 27 26 28 28 28
32 30 26 26 13 7 18 24 29 34 33 33 30 28 32 28 29 26 19 21 26 32 48 22 17 20 14 40 38 39 36 33 33 32 31 31 30 28 27 27 28 30 30
27 24 22 16 4 2 10 16 21 25 27 27 25 28 29 26 24 23 21 21 22 20 19 16 16 19 19 28 49 41 39 36 35 34 35 32 31 29 28 28 29 31 33
22 19 17 14 3 4 6 11 17 20 22 24 22 25 27 25 24 23 22 21 20 19 20 20 19 18 28 31 42 46 40 38 37 36 36 34 32 29 31 31 32 31 33
18 15 13 10 7 1 5 9 17 20 21 22 22 25 26 27 26 25 24 19 19 23 27 28 24 17 27 38 39 46 46 40 35 39 38 34 33 32 34 35 34 34 35
17 12 11 9 4 2 4 10 14 14 16 21 23 28 29 29 29 31 31 32 24 27 25 30 32 39 31 33 43 43 45 48 40 35 37 35 34 34 36 36 38 39 39
Wind_Direction
278 276 273 270 274 277 277 275 280 284 279 266 259 249 252 255 254 257 255 255 256 257 261 273 269 238 221 233 307 329 152 131 98 102 113 42 26 23 23 24 31 39 46
281 287 288 285 280 277 277 277 274 274 279 279 269 263 250 249 251 252 252 247 248 248 258 275 243 248 256 259 269 280 222 170 192 193 186 73 17 26 20 23 30 35 44
278 283 287 289 287 282 277 273 273 272 271 272 274 267 262 251 244 246 244 243 241 242 251 252 244 252 256 268 275 266 261 252 233 208 197 245 342 20 19 21 27 32 42
290 291 291 290 291 290 284 276 272 270 269 269 268 269 264 258 248 239 239 241 243 244 247 245 241 245 252 266 269 266 259 257 238 215 206 226 310 2 14 19 24 29 36
292 290 290 289 289 288 289 286 277 271 267 263 264 263 263 260 253 248 239 238 244 245 245 245 238 241 251 258 265 255 252 250 240 217 202 205 287 344 8 12 17 23 30
294 295 297 298 297 293 289 286 284 278 265 263 257 258 256 256 254 248 245 239 239 244 246 246 239 239 243 250 255 250 244 235 226 216 204 212 258 328 357 5 11 15 25
294 294 294 294 297 296 294 290 284 278 274 260 257 251 252 251 251 250 245 244 241 241 243 244 241 239 241 245 249 237 231 233 239 231 224 211 235 318 345 353 6 15 21
291 292 291 294 295 295 297 293 289 277 271 266 254 250 245 247 246 248 245 244 242 239 239 240 239 238 238 241 241 223 230 231 240 230 212 198 226 310 340 348 1 6 15
288 293 296 294 300 292 300 290 292 282 270 264 257 248 245 241 242 243 244 242 241 240 238 238 237 237 235 235 233 225 224 230 221 221 211 203 208 278 325 341 350 353 359
292 295 293 293 294 292 295 293 292 283 272 263 257 250 246 240 239 238 239 239 238 238 238 238 238 237 233 230 230 233 228 226 216 219 215 219 227 258 289 326 334 338 338
292 292 293 292 292 290 291 290 288 282 272 259 252 249 243 240 236 236 236 236 235 236 235 236 238 235 234 226 223 233 227 227 216 218 226 235 236 248 262 281 304 316 316
291 290 291 292 291 286 287 285 280 275 264 256 248 241 242 241 241 237 236 234 235 235 235 234 235 236 233 227 219 226 221 222 221 224 237 244 244 245 254 274 281 291 304
292 291 291 292 290 285 277 269 271 267 263 258 249 239 228 241 238 235 234 233 232 233 233 232 232 233 232 226 214 224 214 216 218 222 234 238 241 250 265 268 277 291 292
290 292 293 291 287 281 276 269 264 260 250 246 250 239 232 232 246 226 228 229 233 228 232 233 231 233 230 221 211 222 213 216 219 221 225 232 242 253 264 272 283 292 293
295 294 289 285 282 275 268 264 261 255 246 237 229 223 232 227 244 227 215 226 229 234 230 229 229 227 231 217 206 219 214 218 221 226 226 233 240 251 260 270 278 285 292
299 294 290 282 273 268 264 259 256 252 240 236 240 247 256 238 237 241 217 220 225 225 228 226 226 225 226 212 208 216 217 219 224 230 234 236 243 252 262 268 273 279 282
301 300 294 285 276 272 266 258 251 248 242 234 239 245 244 243 240 232 218 209 210 220 218 222 223 223 223 216 211 220 219 222 228 231 237 243 248 253 259 264 269 275 278
303 299 289 290 283 273 262 254 247 242 239 238 234 239 244 246 245 232 232 197 192 216 218 210 216 219 220 218 214 222 224 224 229 234 239 245 253 257 261 267 270 275 281
314 309 304 299 291 277 259 247 239 236 235 235 236 239 246 252 260 254 252 213 200 207 208 210 207 215 218 220 220 222 230 229 230 235 240 246 254 259 264 267 272 273 278
318 315 311 303 293 281 251 239 233 229 230 231 236 237 240 240 247 250 250 241 230 232 214 211 210 221 223 225 223 226 230 234 235 234 240 248 255 260 264 268 270 274 278
321 317 314 306 304 284 219 222 224 227 226 228 233 237 235 230 226 236 228 243 250 221 222 241 263 282 223 226 227 228 230 233 237 240 245 253 257 260 264 268 273 278 282
323 320 320 320 315 276 207 209 211 214 220 227 232 232 226 222 227 229 225 237 252 228 228 259 280 273 250 222 231 233 233 233 235 238 246 256 259 263 269 273 279 280 282
323 327 336 331 17 141 186 205 209 211 215 224 233 220 212 218 221 229 222 227 237 254 255 248 270 282 263 238 228 228 237 238 238 243 249 251 257 264 269 277 281 285 289
327 335 352 358 353 156 193 208 207 206 215 226 226 214 208 210 216 226 215 216 219 231 238 234 243 257 228 241 228 224 236 239 240 245 250 255 259 263 271 275 280 286 288
339 342 356 7 14 328 203 214 213 216 224 228 227 213 207 205 212 219 214 216 237 239 232 231 224 230 232 249 243 230 236 240 244 249 251 256 263 269 272 281 289 289 292
356 3 1 357 348 304 218 211 215 229 230 232 232 219 210 211 216 207 209 214 203 230 227 240 223 245 245 254 243 250 242 238 244 254 259 261 264 270 280 289 290 287 288
Height
5888 5889 5890 5891 5891 5893 5893 5893 5894 5894 5895 5895 5896 5895 5896 5898 5898 5899 5899 5899 5899 5899 5899 5898 5899 5899 5898 5898 5898 5897 5898 5897 5897 5896 5896 5896 5895 5894 5892 5891 5888 5885 5883
5886 5887 5887 5887 5889 5889 5890 5890 5891 5892 5893 5893 5893 5894 5894 5895 5896 5897 5897 5897 5897 5897 5898 5898 5899 5899 5899 5898 5897 5897 5896 5897 5896 5896 5896 5896 5895 5894 5893 5891 5889 5886 5884
5884 5885 5885 5884 5885 5886 5886 5886 5888 5889 5889 5890 5891 5891 5892 5892 5893 5894 5895 5895 5895 5896 5896 5896 5896 5897 5898 5898 5896 5896 5896 5896 5896 5896 5895 5895 5895 5895 5893 5892 5890 5887 5885
5882 5883 5882 5882 5882 5882 5883 5883 5884 5885 5886 5887 5887 5889 5889 5890 5891 5891 5892 5893 5893 5893 5893 5894 5895 5895 5896 5896 5896 5895 5895 5895 5895 5895 5895 5895 5895 5895 5894 5892 5890 5888 5886
5878 5879 5879 5879 5879 5879 5879 5879 5879 5881 5881 5882 5883 5885 5885 5886 5887 5888 5888 5889 5891 5891 5891 5892 5892 5892 5893 5894 5894 5894 5894 5894 5895 5894 5894 5894 5894 5895 5894 5893 5891 5889 5887
5875 5874 5874 5873 5873 5874 5875 5875 5875 5874 5876 5877 5878 5879 5881 5882 5883 5884 5885 5886 5887 5888 5889 5889 5889 5890 5890 5891 5892 5892 5893 5893 5894 5894 5893 5893 5894 5894 5894 5893 5891 5889 5888
5871 5870 5869 5869 5869 5869 5869 5869 5870 5869 5868 5871 5872 5873 5875 5876 5878 5879 5881 5882 5883 5884 5885 5886 5887 5887 5888 5889 5890 5891 5891 5892 5893 5893 5892 5892 5892 5893 5893 5892 5891 5889 5887
5868 5866 5865 5864 5864 5863 5862 5862 5862 5863 5863 5863 5865 5867 5868 5870 5872 5874 5875 5877 5878 5879 5880 5882 5883 5883 5886 5888 5888 5890 5889 5890 5892 5892 5891 5891 5891 5892 5892 5891 5890 5889 5887
5863 5863 5861 5858 5859 5857 5856 5855 5855 5855 5855 5855 5856 5859 5861 5863 5866 5868 5870 5872 5873 5875 5876 5877 5878 5879 5883 5885 5886 5887 5887 5888 5889 5890 5890 5890 5889 5890 5890 5889 5889 5888 5887
5855 5855 5855 5852 5852 5851 5850 5848 5848 5848 5848 5848 5848 5851 5853 5856 5858 5861 5863 5865 5867 5869 5871 5872 5873 5875 5879 5882 5884 5884 5885 5886 5886 5888 5888 5889 5888 5888 5888 5888 5887 5886 5885
5847 5846 5845 5845 5843 5842 5841 5840 5839 5839 5839 5840 5841 5841 5843 5847 5849 5853 5856 5858 5860 5863 5866 5868 5869 5872 5874 5879 5881 5880 5883 5884 5885 5887 5887 5887 5887 5887 5887 5885 5885 5884 5883
5838 5837 5834 5835 5834 5831 5831 5829 5829 5829 5831 5831 5831 5833 5835 5840 5843 5847 5849 5852 5854 5857 5860 5863 5865 5868 5870 5875 5877 5876 5879 5881 5883 5884 5885 5885 5885 5885 5884 5884 5883 5882 5883
5828 5825 5824 5822 5822 5821 5819 5820 5819 5817 5821 5820 5822 5824 5828 5830 5831 5836 5840 5844 5847 5850 5852 5856 5861 5863 5866 5872 5873 5872 5875 5878 5879 5881 5882 5882 5883 5883 5883 5882 5882 5881 5881
5822 5816 5811 5809 5807 5806 5805 5805 5806 5807 5813 5815 5812 5812 5820 5819 5819 5820 5828 5835 5840 5842 5845 5852 5856 5860 5861 5867 5869 5869 5873 5874 5875 5877 5879 5879 5880 5880 5880 5880 5880 5880 5879
5808 5805 5802 5796 5792 5791 5791 5791 5793 5793 5800 5802 5800 5797 5807 5809 5810 5813 5816 5824 5830 5834 5838 5844 5849 5854 5856 5863 5865 5865 5869 5870 5871 5873 5874 5876 5877 5877 5877 5877 5877 5876 5877
5796 5790 5786 5783 5779 5775 5776 5778 5780 5781 5787 5789 5789 5791 5795 5798 5801 5808 5810 5814 5818 5825 5828 5835 5840 5847 5851 5859 5859 5860 5863 5865 5867 5869 5871 5872 5873 5873 5874 5874 5873 5874 5873
5782 5774 5769 5768 5766 5762 5761 5763 5767 5767 5773 5778 5781 5784 5787 5789 5793 5802 5805 5809 5812 5817 5821 5827 5834 5840 5845 5852 5854 5854 5859 5861 5862 5864 5866 5868 5868 5869 5870 5870 5870 5870 5870
5772 5764 5754 5750 5750 5747 5745 5747 5752 5757 5762 5766 5773 5774 5779 5784 5787 5792 5797 5803 5805 5811 5814 5820 5828 5834 5840 5846 5850 5850 5853 5856 5857 5860 5862 5862 5864 5865 5865 5866 5865 5865 5865
5758 5751 5745 5735 5724 5727 5727 5731 5737 5745 5751 5756 5764 5768 5771 5777 5780 5785 5787 5794 5796 5804 5808 5814 5821 5827 5833 5839 5844 5847 5847 5851 5853 5855 5856 5858 5860 5860 5861 5860 5860 5860 5859
5747 5739 5732 5723 5712 5706 5710 5717 5725 5734 5741 5748 5756 5763 5766 5773 5777 5781 5783 5787 5790 5798 5803 5810 5816 5822 5827 5831 5837 5842 5843 5845 5848 5851 5851 5853 5854 5855 5856 5855 5854 5854 5854
5739 5732 5723 5713 5703 5695 5698 5707 5717 5726 5736 5742 5749 5754 5760 5768 5773 5777 5781 5784 5785 5795 5801 5806 5811 5815 5820 5824 5830 5836 5839 5840 5842 5844 5845 5848 5850 5850 5850 5849 5849 5849 5849
5735 5728 5718 5709 5702 5698 5698 5704 5711 5720 5729 5736 5743 5749 5754 5761 5770 5772 5775 5780 5782 5788 5796 5801 5805 5810 5815 5820 5824 5827 5832 5836 5837 5840 5841 5841 5843 5845 5844 5845 5845 5844 5843
5732 5725 5715 5708 5703 5703 5705 5709 5714 5720 5727 5731 5737 5743 5750 5756 5762 5767 5771 5775 5778 5784 5791 5797 5801 5805 5809 5813 5815 5820 5823 5828 5832 5834 5835 5837 5837 5838 5840 5838 5839 5837 5836
5729 5722 5714 5710 5707 5707 5709 5712 5717 5721 5725 5729 5734 5739 5745 5751 5758 5762 5767 5771 5775 5782 5789 5793 5797 5800 5803 5804 5808 5812 5819 5821 5824 5829 5830 5830 5832 5833 5832 5832 5835 5832 5830
5726 5720 5715 5711 5710 5710 5711 5714 5717 5720 5724 5727 5731 5735 5740 5747 5752 5757 5762 5767 5770 5778 5785 5788 5791 5794 5797 5799 5803 5807 5811 5814 5817 5821 5823 5825 5826 5826 5824 5825 5824 5823 5823
5725 5720 5715 5712 5711 5710 5712 5715 5718 5721 5723 5725 5727 5731 5735 5741 5746 5750 5755 5760 5764 5772 5777 5782 5784 5791 5793 5794 5797 5799 5804 5808 5812 5815 5817 5818 5819 5818 5817 5816 5814 5813 5813